TimeCST,TemperatureF,Dew PointF,Humidity,Sea Level PressureIn,VisibilityMPH,Wind Direction,Wind SpeedMPH,Gust SpeedMPH,PrecipitationIn,Events,Conditions,WindDirDegrees,DateUTC
12:53 AM,32.0,18.0,56,30.19,10.0,NNW,5.8,-,N/A,,Clear,340,2013-01-21 06:53:00
1:53 AM,30.9,17.1,57,30.21,10.0,NNW,5.8,-,N/A,,Clear,340,2013-01-21 07:53:00
2:53 AM,30.9,17.1,57,30.20,10.0,NNW,5.8,-,N/A,,Mostly Cloudy,340,2013-01-21 08:53:00
3:53 AM,30.0,17.1,59,30.19,10.0,NNW,3.5,-,N/A,,Mostly Cloudy,330,2013-01-21 09:53:00
4:53 AM,30.0,15.1,54,30.21,10.0,NNW,5.8,-,N/A,,Scattered Clouds,330,2013-01-21 10:53:00
5:53 AM,28.0,16.0,61,30.23,10.0,NW,6.9,-,N/A,,Scattered Clouds,320,2013-01-21 11:53:00
6:53 AM,28.0,16.0,61,30.26,10.0,NW,4.6,-,N/A,,Mostly Cloudy,320,2013-01-21 12:53:00
7:53 AM,28.9,16.0,58,30.28,10.0,NNW,9.2,-,N/A,,Scattered Clouds,330,2013-01-21 13:53:00
8:53 AM,30.9,15.1,52,30.31,10.0,NW,10.4,-,N/A,,Partly Cloudy,320,2013-01-21 14:53:00
9:53 AM,33.1,16.0,50,30.32,10.0,NW,6.9,-,N/A,,Clear,320,2013-01-21 15:53:00
10:53 AM,37.0,15.1,41,30.30,10.0,NW,10.4,-,N/A,,Clear,320,2013-01-21 16:53:00
11:53 AM,39.0,12.0,33,30.27,10.0,NNW,15.0,19.6,N/A,,Clear,340,2013-01-21 17:53:00
12:53 PM,39.0,10.9,32,30.25,10.0,NW,11.5,20.7,N/A,,Partly Cloudy,310,2013-01-21 18:53:00
1:53 PM,39.9,10.9,31,30.25,10.0,NNW,13.8,18.4,N/A,,Clear,330,2013-01-21 19:53:00
2:53 PM,39.0,10.9,32,30.25,10.0,NNW,6.9,-,N/A,,Clear,340,2013-01-21 20:53:00
3:53 PM,37.9,10.9,33,30.25,10.0,North,9.2,-,N/A,,Clear,350,2013-01-21 21:53:00
4:53 PM,35.1,10.9,37,30.25,10.0,NW,9.2,-,N/A,,Partly Cloudy,320,2013-01-21 22:53:00
5:53 PM,33.1,10.9,40,30.27,10.0,North,8.1,17.3,N/A,,Partly Cloudy,350,2013-01-21 23:53:00
6:53 PM,30.9,9.0,40,30.28,10.0,NNW,8.1,-,N/A,,Clear,330,2013-01-22 00:53:00
7:53 PM,30.0,8.1,40,30.30,10.0,NNW,6.9,-,N/A,,Clear,330,2013-01-22 01:53:00
8:53 PM,27.0,10.0,49,30.31,10.0,North,6.9,-,N/A,,Clear,360,2013-01-22 02:53:00
9:53 PM,26.1,8.1,47,30.32,10.0,North,8.1,-,N/A,,Clear,360,2013-01-22 03:53:00
10:53 PM,24.1,8.1,51,30.32,10.0,North,6.9,-,N/A,,Clear,350,2013-01-22 04:53:00
11:53 PM,24.1,8.1,51,30.32,10.0,North,4.6,-,N/A,,Overcast,350,2013-01-22 05:53:00